Weather in The Pas

Canada     53°49′02″N   101°14′43″W
temp.,
°C
wind,
m/s
gust,
m/s
humid.,
%
clouds,
%
prec.,
mm/h
press.,
hPa
HPBL,
m
16 may, sun
sun1601:00+9s31185100 0.0 1008271
04:00+10ssw3990100 0.3 1006211
07:00+11w41091100 0.7 1007399
10:00+13wnw696387 0.0 1008907
13:00+16nw693873 0.0 10101545
16:00+17nw5836100 0.0 10112062
19:00+16n4537100 0.0 10121486
22:00+9ene395194 0.0 1014207
17 may, mon
mon1701:00+6e41057100 0.0 1016348
04:00+5ese51164100 0.0 1016419
07:00+4ese61466100 0.0 1015440
10:00+6se8175992 0.0 1012510
13:00+17sse7104298 0.0 1007900
16:00+26sse6113345 0.0 10031792
19:00+27ssw6113049 0.0 10011091
22:00+21s51445100 0.0 1001309
18 may, tue
tue1801:00+19s61749100 0.0 1000440
04:00+19ssw7195130 0.0 999598
07:00+19ssw617555 0.0 999591
10:00+24ssw712465 0.0 999804
13:00+29ssw710350 0.0 9981524
16:00+31ssw710300 0.0 9972762
19:00+30wsw583196 0.0 9961988
22:00+20sw22465 0.1 99820
19 may, wed
wed1901:00+11n368187 0.1 1001151
04:00+9nw3585100 0.0 1003175
07:00+10ene3380100 0.0 1003141
10:00+16sw365760 0.0 1004498
13:00+20w8103999 0.0 10051733
16:00+18wnw89405 0.0 10081773
19:00+16wnw68385 0.0 10101731
22:00+10n610525 0.0 1013553
20 may, thu
thu2001:00+6nnw485829 0.0 1017454
04:00+3nnw3670100 0.0 1018247
07:00+3nne3574100 0.0 1020440
10:00+6nne445569 0.0 1020850
13:00+9nne444368 0.0 10211259
16:00+9nne3540100 0.0 10201090
19:00+9ne3642100 0.0 1020626
22:00+8ne6949100 0.0 1022908